[[{"header":{"parameterUnit":"m.s-1","parameterCategory":2,"la1":30.2991,"la2":30.254,"lo1":-89.0895,"lo2":-89.0444,"dy":0.0017,"dx":0.0017,"nx":28,"ny":28,"refTime":"2025-05-31T21:00:00:Z","depth":"0","parameterNumber":2,"parameterNumberName":"U-component_of_CURRENTS"},"data":[0,0,0,0,0,0,0,0,0,0,0,0,0,0,0,0,0,0,0,0,0,0,0,0,0,0,0,0,0,0,0,0,0,0,0,0,0,0,0,0,0,0,0,0,0,0,0,0,0,0,0,0,0,0,0,0,0,0,-0.2635,-0.2636,0,-0.2835,-0.2838,-0.2841,-0.3064,-0.3066,-0.3069,-0.3071,-0.3263,-0.3266,-0.3269,0,0,0,0,0,0,0,0,0,0,0,0,0,-0.2513,-0.2514,-0.2635,-0.2636,-0.2638,-0.2835,-0.2838,-0.2842,-0.3064,-0.3066,-0.3069,-0.3072,-0.3262,-0.3266,-0.3269,0,0,0,0,0,0,0,0,0,0,0,0,0,-0.2634,-0.2515,-0.2635,-0.2765,-0.2777,-0.2834,-0.2838,-0.2843,-0.3063,-0.3066,-0.307,-0.3073,-0.3261,-0.3265,-0.327,-0.3228,0,0,-0.3283,-0.3285,0,0,0,0,0,0,0,0,-0.2627,-0.264,-0.2744,-0.2756,-0.277,-0.2919,-0.2865,-0.2968,-0.3062,-0.2966,-0.3071,-0.3075,-0.3138,-0.3153,-0.3198,-0.3237,-0.3245,-0.3284,-0.3286,-0.3288,-0.329,0,0,0,0,0,0,0,-0.2618,-0.2632,-0.2725,-0.2745,-0.2761,-0.2835,-0.2857,-0.2887,-0.3038,-0.2974,-0.2988,-0.2993,-0.3147,-0.3193,-0.3203,-0.3248,-0.3284,-0.3288,-0.329,-0.3292,-0.3283,-0.328,0,0,0,0,0,0,-0.2565,-0.2624,-0.2718,-0.273,-0.2694,-0.2833,-0.2858,-0.2876,-0.3038,-0.3063,-0.299,-0.3002,-0.3184,-0.3198,-0.3211,-0.3177,-0.3288,-0.3292,-0.3295,-0.3286,-0.3283,-0.3279,0,0,0,0,0,0,-0.2562,-0.2572,-0.271,-0.2673,-0.2694,-0.283,-0.285,-0.2878,-0.2925,-0.3048,-0.3076,-0.3006,-0.3187,-0.3205,-0.3248,-0.3185,-0.3294,-0.3299,-0.329,-0.3285,-0.3281,-0.3103,0,0,0,0,0,0,-0.2558,-0.257,-0.2572,-0.2669,-0.2694,-0.2717,-0.2846,-0.2879,-0.2917,-0.2936,-0.3069,-0.3092,-0.3191,-0.324,-0.3252,-0.3194,-0.3302,-0.3293,-0.3288,-0.3282,-0.3113,-0.3093,-0.3077,0,0,0,0,0,-0.2553,-0.2548,-0.2571,-0.2583,-0.2691,-0.2713,-0.2733,-0.285,-0.2913,-0.291,-0.3021,-0.3088,-0.3213,-0.3242,-0.3257,-0.3198,-0.3296,-0.3289,-0.3283,-0.3121,-0.3097,-0.3077,0,0,0,0,0,0,-0.2512,-0.2571,-0.26,-0.2618,-0.264,-0.2747,-0.2766,-0.282,-0.2906,-0.2938,-0.3064,-0.3092,-0.3097,-0.3164,-0.3192,-0.3176,-0.3258,-0.3254,-0.313,-0.3108,-0.309,-0.3121,-0.3306,0,0,0,0,0,-0.2488,-0.2497,-0.2547,-0.2554,-0.2562,-0.2649,-0.2676,-0.2737,-0.2817,-0.2863,-0.2941,-0.3026,-0.3076,-0.3109,-0.3159,-0.3152,-0.3181,-0.3118,-0.31,-0.3084,-0.3116,-0.3097,-0.308,-0.3258,-0.3258,-0.3258,0,0,-0.2472,-0.2504,-0.2511,-0.2542,-0.2587,-0.2603,-0.2679,-0.27,-0.2724,-0.286,-0.2912,-0.2955,-0.3056,-0.3064,-0.307,-0.3119,-0.303,-0.3076,-0.3062,-0.3104,-0.3088,-0.3072,-0.3056,-0.3253,-0.3254,-0.3255,0,0,-0.2439,-0.2466,-0.2462,-0.2476,-0.2505,-0.2553,-0.2539,-0.2604,-0.2646,-0.2664,-0.2773,-0.2778,-0.2857,-0.2916,-0.296,-0.286,-0.2925,-0.2861,-0.2811,-0.2788,-0.2774,-0.2763,-0.2699,-0.2684,-0.2864,-0.2864,-0.2863,0,-0.2421,-0.2435,-0.2457,-0.2459,-0.2483,-0.2519,-0.2527,-0.2555,-0.2623,-0.2642,-0.2655,-0.2743,-0.2786,-0.2833,-0.2807,-0.2816,-0.2823,-0.2886,-0.2765,-0.2755,-0.2746,-0.2685,-0.267,-0.2854,-0.2855,-0.2856,-0.2857,0,-0.2387,-0.2405,-0.2399,-0.2425,-0.2438,-0.2441,-0.2472,-0.247,-0.2494,-0.253,-0.2531,-0.2578,-0.265,-0.2617,-0.2695,-0.2656,-0.2681,-0.2731,-0.2821,-0.2718,-0.2659,-0.2646,-0.2841,-0.2844,-0.2847,-0.2849,0,0,-0.2341,-0.2374,-0.2375,-0.2399,-0.2428,-0.244,-0.244,-0.246,-0.2489,-0.2463,-0.2487,-0.2489,-0.251,-0.2561,-0.2607,-0.2577,-0.2458,-0.2635,-0.2638,-0.2573,-0.2389,-0.2241,-0.2214,-0.2504,-0.2502,-0.2501,-0.2344,0,-0.2317,-0.2334,-0.2351,-0.2372,-0.2394,-0.242,-0.2434,-0.2449,-0.2461,-0.2475,-0.2458,-0.2494,-0.2494,-0.2521,-0.2481,-0.2505,-0.2434,-0.2496,-0.2503,-0.2502,-0.2385,-0.2198,-0.213,-0.1973,-0.2333,-0.2331,-0.233,0,-0.2279,-0.2312,-0.2336,-0.239,-0.2399,-0.2413,-0.2459,-0.247,-0.2485,-0.2489,-0.2488,-0.251,-0.2479,-0.2478,-0.2409,-0.2463,-0.2411,-0.2383,-0.2378,-0.2315,-0.2333,-0.2151,-0.1939,-0.1945,-0.2312,-0.2314,-0.2315,0,-0.2255,-0.2296,-0.2327,-0.2345,-0.2403,-0.2417,-0.2443,-0.2477,-0.2484,-0.2511,-0.2512,-0.2501,-0.2482,-0.2433,-0.2341,-0.2401,-0.2229,-0.2306,-0.2099,-0.2088,-0.2071,-0.2059,-0.1878,-0.221,-0.221,-0.2211,-0.2211,0,-0.2229,-0.2246,-0.2327,-0.2343,-0.2388,-0.2428,-0.2457,-0.2482,-0.2503,-0.2491,-0.253,-0.2496,-0.2474,-0.2377,-0.2318,-0.2127,-0.2192,-0.2048,-0.2026,-0.1994,-0.1978,-0.2023,-0.2089,-0.2205,-0.2206,-0.2207,-0.2208,0,-0.2177,-0.2225,-0.227,-0.2352,-0.2375,-0.2408,-0.2446,-0.2437,-0.25,-0.2482,-0.2483,-0.2468,-0.2335,-0.2249,-0.2131,-0.2061,-0.1881,-0.1835,-0.1761,-0.1731,-0.1575,-0.1635,-0.1489,-0.1438,-0.1612,-0.1608,-0.1604,0,-0.2145,-0.2169,-0.227,-0.2277,-0.2307,-0.2357,-0.2348,-0.2416,-0.2399,-0.2432,-0.2386,-0.2298,-0.2163,-0.1915,-0.1774,-0.1581,-0.1641,-0.1427,-0.1514,-0.1498,-0.1552,-0.1625,-0.1602,-0.14,-0.1395,-0.139,-0.1387,0,-0.2076,-0.2119,-0.2151,-0.2186,-0.2194,-0.2213,-0.2222,-0.2227,-0.227,-0.2271,-0.2193,-0.2105,-0.1869,-0.163,-0.1391,-0.129,-0.1418,-0.1328,-0.1356,-0.1378,-0.1409,-0.1372,-0.1557,-0.1348,-0.1352,-0.1354,-0.1357,-0.1358,-0.2,-0.2007,-0.2031,-0.2051,-0.2055,-0.2032,-0.2004,-0.2013,-0.1993,-0.1949,-0.1948,-0.1765,-0.1589,-0.1241,-0.1119,-0.0959,-0.1071,-0.0974,-0.1043,-0.1114,-0.1068,-0.1114,-0.0858,-0.0859,-0.086,-0.0861,-0.0862,0,-0.1872,-0.1863,-0.1866,-0.1871,-0.1811,-0.1871,-0.1855,-0.1801,-0.174,-0.1675,-0.1588,-0.1342,-0.1134,-0.0989,-0.0823,-0.0744,-0.0775,-0.0733,-0.0881,-0.0868,-0.0932,-0.0926,-0.0618,-0.0618,-0.0618,-0.0618,-0.0618,-0.0618,-0.1785,-0.1724,-0.1732,-0.1609,-0.1603,-0.149,-0.1465,-0.1437,-0.1372,-0.1181,-0.1011,-0.0883,-0.0833,-0.089,-0.0787,-0.0718,-0.0756,-0.07,-0.0735,-0.0868,-0.09,-0.093,-0.0935,-0.0635,-0.0635,-0.0649,-0.0649,-0.065]},{"header":{"parameterUnit":"m.s-1","parameterCategory":2,"la1":30.2991,"la2":30.254,"lo1":-89.0895,"lo2":-89.0444,"dy":0.0017,"dx":0.0017,"nx":28,"ny":28,"refTime":"2025-05-31T21:00:00:Z","depth":"0","parameterNumber":3,"parameterNumberName":"V-component_of_CURRENTS"},"data":[0,0,0,0,0,0,0,0,0,0,0,0,0,0,0,0,0,0,0,0,0,0,0,0,0,0,0,0,0,0,0,0,0,0,0,0,0,0,0,0,0,0,0,0,0,0,0,0,0,0,0,0,0,0,0,0,0,0,-0.0655,-0.0654,0,-0.0516,-0.0513,-0.0511,-0.0347,-0.0345,-0.0343,-0.0342,0.0001,0.0008,0.0016,0,0,0,0,0,0,0,0,0,0,0,0,0,-0.0659,-0.066,-0.0655,-0.0654,-0.0653,-0.0516,-0.0513,-0.0511,-0.0347,-0.0345,-0.0343,-0.0341,-0.0002,0.0007,0.0016,0,0,0,0,0,0,0,0,0,0,0,0,0,-0.0594,-0.066,-0.0655,-0.0562,-0.0553,-0.0517,-0.0513,-0.051,-0.0347,-0.0345,-0.0342,-0.034,-0.0005,0.0006,0.0018,0.0037,0,0,0.0052,0.0057,0,0,0,0,0,0,0,0,-0.0598,-0.0593,-0.0576,-0.0568,-0.0558,-0.0454,-0.039,-0.032,-0.0348,-0.0416,-0.0342,-0.0339,-0.014,-0.0118,-0.0087,0.0053,0.0068,0.0053,0.006,0.0065,0.0068,0,0,0,0,0,0,0,-0.0603,-0.0597,-0.059,-0.0576,-0.0565,-0.0486,-0.0474,-0.0375,-0.0283,-0.041,-0.04,-0.04,-0.0132,-0.0098,-0.0077,0.0073,0.0053,0.0063,0.007,0.0075,0.0291,0.029,0,0,0,0,0,0,-0.0648,-0.0603,-0.0595,-0.0587,-0.0583,-0.049,-0.0476,-0.0482,-0.0288,-0.026,-0.0402,-0.0393,-0.0119,-0.0091,-0.0064,-0.0032,0.0065,0.0076,0.0082,0.0292,0.029,0.0289,0,0,0,0,0,0,-0.0649,-0.0649,-0.0601,-0.0598,-0.0588,-0.0494,-0.0502,-0.0481,-0.0442,-0.0286,-0.0252,-0.0384,-0.0116,-0.008,0.0013,-0.0017,0.0081,0.0091,0.0293,0.0291,0.029,0.0035,0,0,0,0,0,0,-0.065,-0.065,-0.066,-0.0602,-0.059,-0.058,-0.0505,-0.0481,-0.0451,-0.0436,-0.026,-0.0226,-0.0111,-0.0006,0.0024,0.0,0.01,0.0294,0.0292,0.029,0.0044,0.0025,0.0008,0,0,0,0,0,-0.065,-0.0669,-0.0661,-0.066,-0.061,-0.0581,-0.0566,-0.0484,-0.0453,-0.0438,-0.0335,-0.0231,0.0004,0.0002,0.0037,0.0016,0.0295,0.0293,0.029,0.0053,0.0028,0.0008,0,0,0,0,0,0,-0.0662,-0.0654,-0.0643,-0.0656,-0.0629,-0.0557,-0.0539,-0.0503,-0.0414,-0.0393,-0.0247,-0.0207,-0.0138,-0.0025,-0.0031,0.0075,0.0168,0.0172,-0.0025,-0.0046,-0.0064,-0.0101,0.0109,0,0,0,0,0,-0.0684,-0.0697,-0.0675,-0.0683,-0.0679,-0.062,-0.0597,-0.0553,-0.0479,-0.0437,-0.033,-0.0211,-0.0124,-0.0059,0.0045,0.0101,0.0215,0.0114,0.0096,0.0079,0.0074,0.0188,0.0179,0.0281,0.0281,0.0281,0,0,-0.0691,-0.069,-0.0695,-0.0688,-0.0657,-0.0662,-0.0595,-0.0574,-0.0572,-0.0413,-0.0364,-0.0272,-0.0125,-0.0068,-0.0025,0.0026,0.0111,0.0076,0.006,0.0065,0.0185,0.0175,0.0166,0.028,0.028,0.028,0,0,-0.0718,-0.0718,-0.074,-0.0733,-0.0716,-0.0688,-0.0697,-0.0645,-0.0611,-0.0567,-0.0468,-0.0409,-0.0248,-0.0178,-0.0115,-0.017,0.0001,-0.0125,-0.0238,-0.013,-0.0138,-0.0143,-0.0016,-0.0008,-0.0126,-0.0127,-0.0127,0,-0.0725,-0.0765,-0.0737,-0.0759,-0.0775,-0.0716,-0.0751,-0.071,-0.0635,-0.062,-0.0568,-0.0407,-0.0305,-0.0253,-0.0287,-0.0216,-0.0109,-0.0177,-0.0158,-0.016,-0.0162,-0.0029,-0.0017,-0.0139,-0.0138,-0.0137,-0.0135,0,-0.0771,-0.0806,-0.0819,-0.0843,-0.0847,-0.0865,-0.084,-0.0825,-0.079,-0.0743,-0.069,-0.0574,-0.0469,-0.0451,-0.0387,-0.0363,-0.027,-0.0208,-0.0115,-0.0188,-0.0042,-0.0026,-0.0157,-0.0153,-0.0149,-0.0146,0,0,-0.0789,-0.0847,-0.0853,-0.0904,-0.0907,-0.0924,-0.0932,-0.0931,-0.092,-0.0856,-0.0826,-0.076,-0.0693,-0.0621,-0.0541,-0.0479,-0.0429,-0.037,-0.0358,-0.0267,-0.0163,-0.0123,-0.0099,-0.036,-0.0359,-0.0357,-0.006,0,-0.0842,-0.0943,-0.0938,-0.1026,-0.1093,-0.106,-0.1068,-0.1049,-0.0994,-0.0932,-0.0851,-0.0766,-0.0753,-0.0698,-0.0653,-0.0451,-0.0394,-0.0513,-0.0082,-0.0069,-0.0046,-0.0083,-0.0051,0.0214,-0.0042,-0.0039,-0.0037,0,-0.0893,-0.0974,-0.1093,-0.117,-0.1187,-0.1215,-0.1238,-0.1226,-0.1126,-0.1062,-0.099,-0.0868,-0.0778,-0.0738,-0.0494,-0.0561,-0.0407,-0.0271,-0.0254,-0.0115,0.0001,0.0253,0.0257,0.037,-0.0009,-0.0011,-0.0013,0,-0.0975,-0.1074,-0.1195,-0.1225,-0.1287,-0.1328,-0.134,-0.1283,-0.1225,-0.1126,-0.1021,-0.0914,-0.0764,-0.0617,-0.0365,-0.0405,-0.0051,-0.0043,0.0129,0.0138,0.0301,0.0319,0.0447,0.0107,0.0106,0.0105,0.0104,0,-0.1051,-0.1136,-0.1253,-0.1321,-0.142,-0.1434,-0.1441,-0.1425,-0.1303,-0.1184,-0.109,-0.0925,-0.072,-0.0483,-0.0333,-0.003,-0.001,0.0109,0.0208,0.0213,0.0219,0.0439,0.048,0.0116,0.0114,0.0112,0.011,0,-0.1104,-0.1178,-0.1321,-0.1442,-0.1464,-0.1542,-0.1482,-0.1427,-0.1345,-0.1173,-0.1118,-0.0858,-0.0561,-0.0351,-0.0017,0.0079,0.0423,0.0415,0.0407,0.0494,0.0687,0.0714,0.0999,0.1113,0.0639,0.0642,0.0644,0,-0.1138,-0.1228,-0.1401,-0.1441,-0.1494,-0.1553,-0.1515,-0.146,-0.1363,-0.1101,-0.0989,-0.0674,-0.041,0.006,0.0273,0.055,0.062,0.0731,0.0611,0.0696,0.0802,0.081,0.0885,0.0754,0.0757,0.076,0.0762,0,-0.1191,-0.1258,-0.1362,-0.1459,-0.1488,-0.1488,-0.1456,-0.1388,-0.1244,-0.1063,-0.0757,-0.0533,-0.01,0.0244,0.0555,0.0704,0.0815,0.0786,0.09,0.0904,0.0906,0.1065,0.0572,0.0783,0.0781,0.0779,0.0778,0.0777,-0.1192,-0.1271,-0.1372,-0.1448,-0.146,-0.1422,-0.1385,-0.1256,-0.1086,-0.0768,-0.0591,-0.0154,0.0185,0.063,0.0791,0.1071,0.1032,0.1134,0.117,0.1179,0.123,0.0762,0.1048,0.1048,0.1047,0.1047,0.1046,0,-0.1179,-0.1239,-0.131,-0.14,-0.1374,-0.1394,-0.1299,-0.1189,-0.0963,-0.0573,-0.0264,0.0322,0.0651,0.0954,0.1261,0.1426,0.1464,0.1517,0.1536,0.1604,0.1237,0.1176,0.1471,0.1471,0.1471,0.1471,0.1471,0.1471,-0.1166,-0.1224,-0.1273,-0.1278,-0.1304,-0.124,-0.1186,-0.0993,-0.0718,-0.0117,0.0384,0.0749,0.1094,0.1416,0.1703,0.1748,0.1914,0.1905,0.2012,0.1722,0.1687,0.1654,0.1605,0.1986,0.1986,0.2373,0.2376,0.2379]}],[{"header":{"parameterUnit":"m.s-1","parameterCategory":2,"la1":30.2991,"la2":30.254,"lo1":-89.0895,"lo2":-89.0444,"dy":0.0017,"dx":0.0017,"nx":28,"ny":28,"refTime":"2025-05-31T21:00:00:Z","depth":"2","parameterNumber":2,"parameterNumberName":"U-component_of_CURRENTS"},"data":[0,0,0,0,0,0,0,0,0,0,0,0,0,0,0,0,0,0,0,0,0,0,0,0,0,0,0,0,0,0,0,0,0,0,0,0,0,0,0,0,0,0,0,0,0,0,0,0,0,0,0,0,0,0,0,0,0,0,-0.2379,-0.238,0,-0.2417,-0.2418,-0.2418,-0.244,-0.244,-0.2441,-0.2441,-0.2616,-0.262,-0.2625,0,0,0,0,0,0,0,0,0,0,0,0,0,-0.2297,-0.2298,-0.2379,-0.238,-0.2381,-0.2417,-0.2418,-0.2418,-0.244,-0.244,-0.2441,-0.2441,-0.2615,-0.262,-0.2625,0,0,0,0,0,0,0,0,0,0,0,0,0,-0.233,-0.2299,-0.2379,-0.2399,-0.2402,-0.2417,-0.2418,-0.2418,-0.2439,-0.244,-0.2441,-0.2441,-0.2613,-0.2619,-0.2626,-0.2651,0,0,-0.2645,-0.2648,0,0,0,0,0,0,0,0,-0.2328,-0.2333,-0.2396,-0.2398,-0.2401,-0.2428,-0.2453,-0.2504,-0.2439,-0.2421,-0.2441,-0.2442,-0.2568,-0.2578,-0.2576,-0.2659,-0.2667,-0.2646,-0.265,-0.2652,-0.2654,0,0,0,0,0,0,0,-0.2326,-0.2331,-0.239,-0.2397,-0.24,-0.2397,-0.2402,-0.2462,-0.249,-0.2423,-0.2425,-0.2436,-0.257,-0.257,-0.2581,-0.267,-0.2646,-0.2651,-0.2655,-0.2658,-0.2652,-0.2648,0,0,0,0,0,0,-0.233,-0.2329,-0.2389,-0.2392,-0.237,-0.2398,-0.2404,-0.2415,-0.2486,-0.2498,-0.2435,-0.2437,-0.2559,-0.2573,-0.2588,-0.2576,-0.2652,-0.2658,-0.2662,-0.2656,-0.2651,-0.2647,0,0,0,0,0,0,-0.2328,-0.2335,-0.2388,-0.2364,-0.2371,-0.24,-0.2412,-0.2416,-0.2423,-0.2495,-0.2508,-0.244,-0.256,-0.2579,-0.2605,-0.2585,-0.2661,-0.2667,-0.2661,-0.2654,-0.2649,-0.2583,0,0,0,0,0,0,-0.2326,-0.2334,-0.2337,-0.2365,-0.2373,-0.2388,-0.2412,-0.2416,-0.2431,-0.2433,-0.2504,-0.252,-0.2562,-0.2594,-0.2611,-0.2595,-0.2672,-0.2666,-0.2658,-0.2651,-0.259,-0.2576,-0.2563,0,0,0,0,0,-0.2323,-0.2318,-0.2337,-0.2344,-0.2378,-0.2388,-0.239,-0.241,-0.243,-0.2422,-0.2449,-0.2518,-0.2558,-0.2598,-0.2618,-0.2603,-0.2669,-0.266,-0.2651,-0.2596,-0.2578,-0.2563,0,0,0,0,0,0,-0.2282,-0.2321,-0.2342,-0.235,-0.2367,-0.2393,-0.2388,-0.2411,-0.2425,-0.243,-0.2497,-0.2513,-0.2514,-0.2555,-0.2597,-0.2564,-0.2614,-0.2609,-0.2565,-0.2549,-0.2535,-0.2558,-0.2677,0,0,0,0,0,-0.2277,-0.2285,-0.2321,-0.2327,-0.2334,-0.2364,-0.2371,-0.2386,-0.2408,-0.2415,-0.2461,-0.2485,-0.2489,-0.2519,-0.2529,-0.2549,-0.2567,-0.2534,-0.252,-0.2509,-0.2531,-0.2523,-0.2513,-0.2618,-0.2618,-0.2618,0,0,-0.2264,-0.2287,-0.2292,-0.2319,-0.2333,-0.2339,-0.2368,-0.2374,-0.2377,-0.2437,-0.2445,-0.245,-0.2475,-0.2463,-0.2469,-0.2508,-0.2472,-0.2498,-0.249,-0.2518,-0.2513,-0.2504,-0.2495,-0.2612,-0.2613,-0.2614,0,0,-0.224,-0.2261,-0.226,-0.2273,-0.2297,-0.2313,-0.2317,-0.2342,-0.2346,-0.2356,-0.2367,-0.2355,-0.2401,-0.2392,-0.24,-0.2321,-0.2389,-0.2315,-0.23,-0.229,-0.2284,-0.2278,-0.2236,-0.2228,-0.2325,-0.2325,-0.2325,0,-0.2226,-0.2236,-0.2258,-0.2262,-0.2273,-0.2303,-0.2305,-0.2308,-0.2335,-0.2342,-0.2347,-0.2346,-0.2361,-0.2346,-0.2295,-0.2299,-0.23,-0.2374,-0.2279,-0.2275,-0.2271,-0.2229,-0.2221,-0.2321,-0.2321,-0.2322,-0.2322,0,-0.2204,-0.2215,-0.2211,-0.2232,-0.224,-0.224,-0.2261,-0.2263,-0.2278,-0.2291,-0.2275,-0.2267,-0.2279,-0.2248,-0.2259,-0.222,-0.2228,-0.2256,-0.234,-0.2257,-0.2216,-0.2209,-0.2315,-0.2316,-0.2318,-0.2319,0,0,-0.2169,-0.2194,-0.2193,-0.2204,-0.2226,-0.2231,-0.223,-0.2242,-0.2255,-0.2247,-0.2256,-0.2208,-0.2219,-0.2222,-0.2216,-0.2197,-0.2128,-0.2219,-0.222,-0.221,-0.2089,-0.1982,-0.1964,-0.2159,-0.2158,-0.2158,-0.2056,0,-0.2149,-0.215,-0.2168,-0.2171,-0.2175,-0.2203,-0.2207,-0.2221,-0.2232,-0.2242,-0.2223,-0.2221,-0.2207,-0.2206,-0.2181,-0.2152,-0.2115,-0.2152,-0.2143,-0.2142,-0.2086,-0.1955,-0.1831,-0.1721,-0.2049,-0.2048,-0.2047,0,-0.212,-0.2129,-0.2126,-0.2158,-0.2163,-0.2167,-0.219,-0.22,-0.2219,-0.2232,-0.2234,-0.2239,-0.2199,-0.2199,-0.2128,-0.2161,-0.2118,-0.2087,-0.2083,-0.2018,-0.2023,-0.1862,-0.1697,-0.2036,-0.2037,-0.2038,-0.2039,0,-0.2081,-0.2101,-0.2099,-0.2107,-0.214,-0.2145,-0.2164,-0.2191,-0.2207,-0.2229,-0.224,-0.2226,-0.2199,-0.2169,-0.2097,-0.2123,-0.2014,-0.2046,-0.1901,-0.1893,-0.1802,-0.1786,-0.1988,-0.1988,-0.1988,-0.1989,-0.1989,0,-0.2051,-0.2051,-0.2081,-0.2079,-0.2088,-0.2121,-0.2139,-0.2163,-0.2198,-0.2196,-0.2232,-0.2209,-0.2192,-0.2136,-0.2093,-0.1954,-0.2009,-0.187,-0.1854,-0.1763,-0.1746,-0.2055,-0.2064,-0.1985,-0.1986,-0.1986,-0.1987,0,-0.2005,-0.2024,-0.2027,-0.2057,-0.2068,-0.2073,-0.2125,-0.2133,-0.2179,-0.2174,-0.218,-0.2181,-0.2091,-0.2053,-0.1971,-0.191,-0.1821,-0.1763,-0.1635,-0.1604,-0.1708,-0.1714,-0.1586,-0.1581,-0.1577,-0.1574,-0.1571,0,-0.1979,-0.1975,-0.2003,-0.1998,-0.2007,-0.2032,-0.2042,-0.2109,-0.2112,-0.2131,-0.2103,-0.2049,-0.1955,-0.18,-0.1695,-0.1573,-0.168,-0.1402,-0.1416,-0.1666,-0.1664,-0.1677,-0.1688,-0.1249,-0.1244,-0.124,-0.1236,0,-0.1922,-0.1933,-0.1928,-0.1926,-0.1928,-0.1946,-0.196,-0.1968,-0.2014,-0.2,-0.1931,-0.1865,-0.1709,-0.1508,-0.137,-0.13,-0.1417,-0.1307,-0.1598,-0.1372,-0.134,-0.1342,-0.1366,-0.1198,-0.1202,-0.1205,-0.1207,-0.1209,-0.1862,-0.1847,-0.1835,-0.1823,-0.1831,-0.1812,-0.1775,-0.1784,-0.1757,-0.167,-0.1709,-0.1543,-0.1485,-0.1173,-0.1075,-0.0999,-0.1102,-0.1069,-0.1086,-0.1106,-0.1086,-0.105,-0.0848,-0.085,-0.0851,-0.0852,-0.0854,0,-0.1761,-0.1742,-0.1729,-0.169,-0.1647,-0.1696,-0.167,-0.1588,-0.1479,-0.1428,-0.1332,-0.1127,-0.097,-0.0927,-0.0731,-0.0674,-0.0709,-0.0659,-0.0726,-0.0762,-0.0795,-0.0764,-0.0437,-0.0436,-0.0435,-0.0434,0,0,-0.1694,-0.163,-0.1619,-0.1498,-0.1477,-0.136,-0.1313,-0.1204,-0.1127,-0.0967,-0.0872,-0.0895,-0.0884,-0.0674,-0.061,-0.0491,-0.0627,-0.0456,-0.0787,-0.0901,-0.0933,-0.1019,-0.1009,0,0,0,0,0]},{"header":{"parameterUnit":"m.s-1","parameterCategory":2,"la1":30.2991,"la2":30.254,"lo1":-89.0895,"lo2":-89.0444,"dy":0.0017,"dx":0.0017,"nx":28,"ny":28,"refTime":"2025-05-31T21:00:00:Z","depth":"2","parameterNumber":3,"parameterNumberName":"V-component_of_CURRENTS"},"data":[0,0,0,0,0,0,0,0,0,0,0,0,0,0,0,0,0,0,0,0,0,0,0,0,0,0,0,0,0,0,0,0,0,0,0,0,0,0,0,0,0,0,0,0,0,0,0,0,0,0,0,0,0,0,0,0,0,0,-0.0623,-0.0622,0,-0.0528,-0.0526,-0.0525,-0.0444,-0.0444,-0.0443,-0.0443,-0.0238,-0.0233,-0.0228,0,0,0,0,0,0,0,0,0,0,0,0,0,-0.0615,-0.0616,-0.0623,-0.0622,-0.0622,-0.0528,-0.0526,-0.0525,-0.0444,-0.0444,-0.0443,-0.0443,-0.024,-0.0234,-0.0228,0,0,0,0,0,0,0,0,0,0,0,0,0,-0.0575,-0.0616,-0.0623,-0.0574,-0.0569,-0.0528,-0.0526,-0.0524,-0.0444,-0.0444,-0.0443,-0.0442,-0.0242,-0.0234,-0.0227,-0.0193,0,0,-0.0204,-0.02,0,0,0,0,0,0,0,0,-0.0577,-0.0575,-0.0582,-0.0577,-0.0572,-0.0502,-0.0449,-0.041,-0.0444,-0.0486,-0.0443,-0.0442,-0.032,-0.0306,-0.0284,-0.0183,-0.0175,-0.0203,-0.0198,-0.0195,-0.0193,0,0,0,0,0,0,0,-0.058,-0.0578,-0.058,-0.0581,-0.0575,-0.0516,-0.051,-0.044,-0.0402,-0.0483,-0.0478,-0.0475,-0.0315,-0.0291,-0.0278,-0.0172,-0.0203,-0.0196,-0.0192,-0.0189,-0.0024,-0.0024,0,0,0,0,0,0,-0.0609,-0.0581,-0.0583,-0.0578,-0.0578,-0.0517,-0.051,-0.0521,-0.0405,-0.0389,-0.0476,-0.0472,-0.0305,-0.0287,-0.027,-0.0218,-0.0195,-0.0188,-0.0184,-0.0024,-0.0024,-0.0024,0,0,0,0,0,0,-0.061,-0.0611,-0.0587,-0.058,-0.0574,-0.052,-0.0531,-0.0519,-0.0496,-0.0402,-0.0383,-0.0466,-0.0303,-0.0281,-0.0228,-0.0209,-0.0185,-0.0178,-0.0024,-0.0024,-0.0024,-0.0116,0,0,0,0,0,0,-0.061,-0.0612,-0.0622,-0.0583,-0.0575,-0.057,-0.0532,-0.0518,-0.0498,-0.0491,-0.0387,-0.0367,-0.0301,-0.024,-0.0221,-0.0199,-0.0172,-0.0024,-0.0024,-0.0024,-0.0113,-0.0119,-0.0125,0,0,0,0,0,-0.061,-0.0629,-0.0624,-0.0624,-0.0595,-0.0571,-0.0561,-0.0516,-0.0499,-0.0491,-0.0435,-0.037,-0.0227,-0.0235,-0.0212,-0.0187,-0.0023,-0.0024,-0.0024,-0.011,-0.0118,-0.0125,0,0,0,0,0,0,-0.0625,-0.0622,-0.0615,-0.0631,-0.0609,-0.056,-0.0551,-0.0525,-0.0474,-0.0468,-0.0379,-0.0356,-0.03,-0.0239,-0.025,-0.0142,-0.0111,-0.0107,-0.0184,-0.0191,-0.0197,-0.0199,-0.0165,0,0,0,0,0,-0.064,-0.0654,-0.0636,-0.0646,-0.0643,-0.06,-0.0584,-0.0558,-0.0514,-0.0491,-0.0423,-0.0348,-0.0283,-0.0238,-0.0173,-0.0117,-0.0063,-0.0083,-0.009,-0.0095,-0.0082,-0.0011,-0.0009,-0.0026,-0.0026,-0.0026,0,0,-0.0647,-0.0648,-0.0655,-0.0651,-0.0629,-0.0623,-0.0587,-0.0574,-0.0556,-0.0475,-0.0429,-0.0371,-0.0277,-0.0219,-0.0185,-0.0163,-0.0067,-0.0096,-0.0101,-0.0084,-0.0011,-0.0009,-0.0008,-0.0026,-0.0026,-0.0026,0,0,-0.0667,-0.0675,-0.0692,-0.0682,-0.0668,-0.0642,-0.0646,-0.0606,-0.0577,-0.0541,-0.0475,-0.0414,-0.0318,-0.0241,-0.0191,-0.019,-0.0111,-0.0169,-0.0185,-0.0118,-0.0116,-0.0113,-0.0067,-0.006,-0.0162,-0.0162,-0.0162,0,-0.0674,-0.0698,-0.0689,-0.0699,-0.069,-0.0659,-0.0662,-0.0631,-0.0575,-0.0544,-0.0539,-0.0396,-0.0321,-0.023,-0.023,-0.0199,-0.0163,-0.0168,-0.0126,-0.0122,-0.0118,-0.0071,-0.0061,-0.0166,-0.0166,-0.0165,-0.0165,0,-0.0703,-0.0719,-0.0728,-0.0733,-0.0721,-0.0722,-0.0689,-0.0664,-0.0634,-0.0593,-0.0519,-0.0436,-0.0345,-0.0313,-0.0268,-0.0192,-0.0179,-0.0154,-0.0111,-0.0122,-0.0072,-0.006,-0.0173,-0.0171,-0.017,-0.0169,0,0,-0.0721,-0.0745,-0.0747,-0.0751,-0.0741,-0.0729,-0.0708,-0.0666,-0.0641,-0.0588,-0.0541,-0.0436,-0.0396,-0.0338,-0.0271,-0.0205,-0.0153,-0.0174,-0.0168,-0.0135,-0.0024,-0.0009,0.0005,-0.0129,-0.0127,-0.0126,-0.0011,0,-0.0742,-0.0771,-0.0773,-0.078,-0.0788,-0.0756,-0.0739,-0.0694,-0.0651,-0.0601,-0.051,-0.045,-0.0405,-0.037,-0.0299,-0.0183,-0.0123,-0.0188,-0.0011,-0.0005,0.0004,0.002,0.0007,0.011,0.0001,0.0003,0.0004,0,-0.077,-0.0781,-0.0805,-0.0802,-0.0802,-0.0799,-0.0754,-0.0737,-0.0662,-0.0633,-0.0561,-0.0497,-0.0386,-0.0364,-0.0176,-0.0226,-0.0133,-0.0052,-0.0045,0.0017,0.0033,0.011,0.0136,0.0025,0.0023,0.0022,0.002,0,-0.0784,-0.08,-0.0819,-0.0821,-0.0815,-0.0806,-0.0793,-0.0739,-0.0726,-0.0653,-0.063,-0.0507,-0.0438,-0.0311,-0.0148,-0.0162,0.0049,0.0054,0.0154,0.0155,0.0209,0.0211,0.0182,0.0181,0.0181,0.0181,0.018,0,-0.0813,-0.0823,-0.0828,-0.084,-0.0851,-0.0829,-0.0835,-0.0803,-0.0764,-0.0737,-0.0653,-0.0594,-0.0421,-0.0282,-0.0152,0.004,0.0049,0.0164,0.0197,0.0172,0.0171,0.0153,0.0148,0.0185,0.0184,0.0183,0.0183,0,-0.0842,-0.0849,-0.0871,-0.0868,-0.0871,-0.0878,-0.0891,-0.089,-0.0844,-0.0804,-0.0785,-0.0643,-0.0457,-0.0283,-0.0053,0.0046,0.0219,0.0281,0.0228,0.0253,0.0275,0.0264,0.0403,0.0404,0.0406,0.0407,0.0408,0,-0.0863,-0.0883,-0.0905,-0.0928,-0.0936,-0.0952,-0.0973,-0.0945,-0.0933,-0.082,-0.0791,-0.0614,-0.0474,-0.0154,0.0058,0.0283,0.0283,0.0389,0.0371,0.0286,0.0303,0.029,0.0277,0.0396,0.0397,0.0398,0.0399,0,-0.0902,-0.0917,-0.0941,-0.0989,-0.1017,-0.1045,-0.105,-0.1048,-0.0987,-0.0924,-0.0783,-0.0662,-0.0358,-0.0101,0.0173,0.0302,0.0347,0.041,0.037,0.0331,0.0287,0.0301,0.0288,0.0405,0.0404,0.0404,0.0403,0.0403,-0.0933,-0.0966,-0.1004,-0.1045,-0.1083,-0.11,-0.1101,-0.1076,-0.103,-0.089,-0.0775,-0.0562,-0.0337,0.0068,0.0263,0.044,0.043,0.0477,0.0472,0.0468,0.0435,0.0395,0.0526,0.0526,0.0526,0.0526,0.0527,0,-0.0958,-0.1001,-0.1054,-0.1096,-0.1133,-0.1138,-0.1125,-0.1085,-0.0998,-0.0867,-0.0711,-0.0419,-0.015,0.0083,0.0368,0.0522,0.0507,0.0549,0.0499,0.0493,0.0487,0.0453,0.0551,0.0551,0.0552,0.0552,0,0,-0.0975,-0.1032,-0.1058,-0.1116,-0.1146,-0.1147,-0.1123,-0.1037,-0.0924,-0.0759,-0.0604,-0.0416,-0.0137,0.007,0.0273,0.0422,0.0413,0.0436,0.0401,0.0312,0.0305,0.0434,0.0373,0,0,0,0,0]}],[{"header":{"parameterUnit":"m.s-1","parameterCategory":2,"la1":30.2991,"la2":30.254,"lo1":-89.0895,"lo2":-89.0444,"dy":0.0017,"dx":0.0017,"nx":28,"ny":28,"refTime":"2025-05-31T21:00:00:Z","depth":"4","parameterNumber":2,"parameterNumberName":"U-component_of_CURRENTS"},"data":[0,0,0,0,0,0,0,0,0,0,0,0,0,0,0,0,0,0,0,0,0,0,0,0,0,0,0,0,0,0,0,0,0,0,0,0,0,0,0,0,0,0,0,0,0,0,0,0,0,0,0,0,0,0,0,0,0,0,-0.1681,-0.1682,0,-0.1723,-0.1723,-0.1724,-0.1755,-0.1756,-0.1757,-0.1757,-0.1735,-0.1733,-0.1732,0,0,0,0,0,0,0,0,0,0,0,0,0,-0.1599,-0.16,-0.1681,-0.1682,-0.1683,-0.1723,-0.1724,-0.1724,-0.1755,-0.1756,-0.1757,-0.1758,-0.1735,-0.1733,-0.1732,0,0,0,0,0,0,0,0,0,0,0,0,0,-0.1633,-0.16,-0.168,-0.1707,-0.171,-0.1723,-0.1724,-0.1724,-0.1755,-0.1756,-0.1757,-0.1758,-0.1735,-0.1734,-0.1732,-0.1699,0,0,-0.1726,-0.1725,0,0,0,0,0,0,0,0,-0.1631,-0.1635,-0.1702,-0.1705,-0.1708,-0.1739,-0.1687,-0.1714,-0.1755,-0.1733,-0.1757,-0.1758,-0.1732,-0.1731,-0.1731,-0.1698,-0.1697,-0.1726,-0.1725,-0.1724,-0.1723,0,0,0,0,0,0,0,-0.1628,-0.1633,-0.1693,-0.1703,-0.1707,-0.1707,-0.1713,-0.1692,-0.1721,-0.1735,-0.1738,-0.175,-0.1733,-0.1732,-0.173,-0.1697,-0.1726,-0.1724,-0.1723,-0.1722,-0.1658,-0.1658,0,0,0,0,0,0,-0.1633,-0.1631,-0.1692,-0.1695,-0.1677,-0.1708,-0.1714,-0.1724,-0.1723,-0.1726,-0.1749,-0.1752,-0.1735,-0.1732,-0.173,-0.1746,-0.1724,-0.1722,-0.1721,-0.1659,-0.1658,-0.1658,0,0,0,0,0,0,-0.1631,-0.1638,-0.169,-0.1668,-0.1675,-0.1709,-0.172,-0.1725,-0.1757,-0.1736,-0.1736,-0.1781,-0.1736,-0.1732,-0.1729,-0.1743,-0.1721,-0.172,-0.166,-0.1659,-0.1658,-0.1742,0,0,0,0,0,0,-0.1628,-0.1637,-0.1654,-0.1668,-0.1677,-0.1711,-0.1719,-0.1725,-0.1763,-0.1767,-0.1762,-0.1759,-0.1736,-0.1732,-0.1727,-0.174,-0.1718,-0.166,-0.1659,-0.1658,-0.174,-0.1744,-0.1748,0,0,0,0,0,-0.1625,-0.1633,-0.1654,-0.1662,-0.1696,-0.1712,-0.1716,-0.174,-0.1764,-0.1774,-0.1773,-0.1761,-0.1721,-0.1731,-0.1725,-0.1738,-0.1661,-0.1659,-0.1658,-0.1738,-0.1744,-0.1748,0,0,0,0,0,0,-0.1605,-0.1638,-0.1661,-0.168,-0.1706,-0.1719,-0.1734,-0.1758,-0.1767,-0.1776,-0.1762,-0.1758,-0.1759,-0.1728,-0.1739,-0.171,-0.1686,-0.1683,-0.1748,-0.1753,-0.1757,-0.1749,-0.1716,0,0,0,0,0,-0.161,-0.163,-0.166,-0.168,-0.1693,-0.1723,-0.1739,-0.1758,-0.1767,-0.1775,-0.1777,-0.1762,-0.1742,-0.1736,-0.1712,-0.1701,-0.1672,-0.1699,-0.1703,-0.1706,-0.1692,-0.1686,-0.169,-0.1653,-0.1653,-0.1653,0,0,-0.1611,-0.1632,-0.1646,-0.1679,-0.1699,-0.1714,-0.1734,-0.1763,-0.1779,-0.1767,-0.1791,-0.1783,-0.1742,-0.1732,-0.1728,-0.1714,-0.1698,-0.1705,-0.1709,-0.1692,-0.1686,-0.1689,-0.1693,-0.1652,-0.1653,-0.1653,0,0,-0.161,-0.164,-0.1654,-0.1674,-0.1713,-0.1725,-0.1743,-0.1776,-0.1795,-0.1813,-0.1806,-0.181,-0.1787,-0.1764,-0.1745,-0.175,-0.1724,-0.1743,-0.1757,-0.1754,-0.1757,-0.176,-0.1722,-0.1721,-0.1742,-0.1742,-0.1742,0,-0.1615,-0.1634,-0.1661,-0.1676,-0.1695,-0.1735,-0.175,-0.1767,-0.18,-0.181,-0.1826,-0.1813,-0.1796,-0.1774,-0.1775,-0.1763,-0.1744,-0.1754,-0.1762,-0.1765,-0.1766,-0.1727,-0.1725,-0.1746,-0.1745,-0.1745,-0.1745,0,-0.1615,-0.1642,-0.1649,-0.1683,-0.1703,-0.1722,-0.1751,-0.1779,-0.1815,-0.1833,-0.1849,-0.1836,-0.1824,-0.1824,-0.1801,-0.1798,-0.1775,-0.1779,-0.1762,-0.1776,-0.1732,-0.1728,-0.1751,-0.175,-0.1749,-0.1748,0,0,-0.1596,-0.1643,-0.165,-0.1669,-0.171,-0.1723,-0.1749,-0.1777,-0.1801,-0.1836,-0.1857,-0.1843,-0.1858,-0.1834,-0.1823,-0.1819,-0.1821,-0.1806,-0.1804,-0.1786,-0.1791,-0.1667,-0.165,-0.1842,-0.1842,-0.1841,-0.1756,0,-0.1594,-0.1621,-0.1645,-0.1675,-0.1688,-0.1727,-0.1747,-0.1779,-0.181,-0.1838,-0.1844,-0.1856,-0.1854,-0.1862,-0.1859,-0.1831,-0.1815,-0.1842,-0.1762,-0.1759,-0.1663,-0.1643,-0.1841,-0.1753,-0.1752,-0.1751,-0.1751,0,-0.1581,-0.1602,-0.1629,-0.1674,-0.1685,-0.1708,-0.1749,-0.1773,-0.181,-0.1837,-0.1859,-0.1869,-0.1862,-0.187,-0.1829,-0.1851,-0.1818,-0.1798,-0.1795,-0.1642,-0.1627,-0.1732,-0.1743,-0.1744,-0.1744,-0.1745,-0.1745,0,-0.1542,-0.159,-0.1612,-0.1627,-0.1679,-0.1702,-0.1732,-0.1774,-0.1799,-0.1838,-0.1858,-0.1865,-0.186,-0.1845,-0.1802,-0.1823,-0.1748,-0.1772,-0.1623,-0.1613,-0.1719,-0.1717,-0.1736,-0.1736,-0.1736,-0.1737,-0.1737,0,-0.1512,-0.1535,-0.1601,-0.161,-0.1643,-0.1684,-0.1722,-0.1756,-0.1802,-0.1803,-0.1854,-0.1839,-0.1858,-0.1821,-0.1794,-0.1674,-0.1739,-0.16,-0.1579,-0.1753,-0.1755,-0.1716,-0.1715,-0.1733,-0.1734,-0.1735,-0.1735,0,-0.146,-0.1506,-0.1538,-0.1601,-0.1625,-0.1646,-0.1721,-0.1734,-0.1791,-0.1791,-0.1803,-0.1818,-0.1749,-0.1741,-0.1688,-0.1631,-0.1559,-0.1503,-0.1657,-0.165,-0.1428,-0.1432,-0.1323,-0.1317,-0.1313,-0.1309,-0.1306,0,-0.1433,-0.1445,-0.1525,-0.1541,-0.1573,-0.1622,-0.1644,-0.1719,-0.1721,-0.1746,-0.1717,-0.1688,-0.1672,-0.1482,-0.1505,-0.1423,-0.1412,-0.1369,-0.1421,-0.1393,-0.1385,-0.1396,-0.1405,-0.1299,-0.1298,-0.1297,-0.1296,0,-0.1373,-0.1417,-0.1437,-0.1476,-0.1507,-0.1537,-0.1568,-0.1564,-0.1608,-0.1686,-0.1572,-0.1515,-0.1422,-0.1368,-0.1305,-0.1262,-0.1402,-0.1324,-0.1333,-0.1382,-0.1364,-0.1362,-0.1377,-0.1281,-0.1283,-0.1284,-0.1285,0,-0.1326,-0.1329,-0.1361,-0.1377,-0.1421,-0.1403,-0.1447,-0.1414,-0.1428,-0.1453,-0.1404,-0.1367,-0.1383,-0.128,-0.1229,-0.1167,-0.1157,-0.1134,-0.1154,-0.1171,-0.1164,-0.1122,-0.0921,0,0,0,0,0,-0.1266,-0.1242,-0.1254,-0.1249,-0.1291,-0.1306,-0.1361,-0.14,-0.1448,-0.1322,-0.1358,-0.1261,-0.1156,-0.1154,-0.1054,-0.1174,-0.1177,-0.1056,-0.1166,-0.1196,-0.1214,-0.1221,0,0,0,0,0,0,-0.1214,-0.1222,-0.1208,-0.1133,-0.1108,-0.1124,-0.1152,-0.119,-0.113,-0.1186,-0.1132,-0.118,-0.1101,-0.1173,-0.1021,-0.1021,-0.1064,-0.1057,-0.1053,-0.1186,-0.1202,-0.1216,-0.123,0,0,0,0,0]},{"header":{"parameterUnit":"m.s-1","parameterCategory":2,"la1":30.2991,"la2":30.254,"lo1":-89.0895,"lo2":-89.0444,"dy":0.0017,"dx":0.0017,"nx":28,"ny":28,"refTime":"2025-05-31T21:00:00:Z","depth":"4","parameterNumber":3,"parameterNumberName":"V-component_of_CURRENTS"},"data":[0,0,0,0,0,0,0,0,0,0,0,0,0,0,0,0,0,0,0,0,0,0,0,0,0,0,0,0,0,0,0,0,0,0,0,0,0,0,0,0,0,0,0,0,0,0,0,0,0,0,0,0,0,0,0,0,0,0,-0.0472,-0.0472,0,-0.0426,-0.0425,-0.0425,-0.0392,-0.0392,-0.0392,-0.0392,-0.0347,-0.0345,-0.0344,0,0,0,0,0,0,0,0,0,0,0,0,0,-0.0445,-0.0446,-0.0472,-0.0472,-0.0472,-0.0426,-0.0425,-0.0424,-0.0392,-0.0392,-0.0392,-0.0392,-0.0347,-0.0346,-0.0344,0,0,0,0,0,0,0,0,0,0,0,0,0,-0.0431,-0.0446,-0.0473,-0.0452,-0.045,-0.0426,-0.0425,-0.0424,-0.0392,-0.0392,-0.0392,-0.0392,-0.0348,-0.0346,-0.0344,-0.0332,0,0,-0.0338,-0.0337,0,0,0,0,0,0,0,0,-0.0432,-0.0432,-0.0456,-0.0454,-0.0452,-0.0418,-0.0399,-0.0394,-0.0392,-0.0411,-0.0392,-0.0392,-0.0372,-0.0369,-0.0355,-0.033,-0.0328,-0.0338,-0.0337,-0.0336,-0.0336,0,0,0,0,0,0,0,-0.0433,-0.0433,-0.0451,-0.0455,-0.0453,-0.0416,-0.0414,-0.0397,-0.039,-0.0409,-0.0407,-0.0407,-0.0371,-0.0357,-0.0354,-0.0327,-0.0338,-0.0337,-0.0335,-0.0335,-0.0262,-0.0262,0,0,0,0,0,0,-0.045,-0.0435,-0.0453,-0.045,-0.0445,-0.0417,-0.0415,-0.0426,-0.039,-0.0385,-0.0407,-0.0406,-0.036,-0.0356,-0.0352,-0.0315,-0.0336,-0.0334,-0.0333,-0.0263,-0.0262,-0.0261,0,0,0,0,0,0,-0.045,-0.0452,-0.0454,-0.0443,-0.0441,-0.0418,-0.043,-0.0425,-0.0419,-0.0389,-0.0384,-0.0408,-0.036,-0.0355,-0.0338,-0.0314,-0.0334,-0.0332,-0.0264,-0.0263,-0.0262,-0.0254,0,0,0,0,0,0,-0.0449,-0.0453,-0.0466,-0.0445,-0.0442,-0.0448,-0.043,-0.0424,-0.042,-0.0418,-0.0388,-0.0383,-0.036,-0.0341,-0.0337,-0.0312,-0.0331,-0.0265,-0.0264,-0.0262,-0.0255,-0.0252,-0.025,0,0,0,0,0,-0.0449,-0.0467,-0.0467,-0.0469,-0.0462,-0.0449,-0.0444,-0.0425,-0.042,-0.0419,-0.0395,-0.0384,-0.0328,-0.034,-0.0334,-0.0308,-0.0266,-0.0264,-0.0262,-0.0256,-0.0253,-0.025,0,0,0,0,0,0,-0.0459,-0.0465,-0.0465,-0.0484,-0.0472,-0.0445,-0.0446,-0.0433,-0.0412,-0.0415,-0.0382,-0.0376,-0.0345,-0.0335,-0.0349,-0.0282,-0.0291,-0.0288,-0.0288,-0.0285,-0.0283,-0.0284,-0.0329,0,0,0,0,0,-0.0471,-0.0488,-0.0479,-0.0494,-0.0494,-0.0472,-0.0466,-0.0455,-0.0435,-0.0427,-0.0401,-0.0371,-0.0331,-0.0318,-0.0288,-0.0265,-0.0249,-0.0241,-0.0239,-0.0237,-0.0234,-0.0178,-0.017,-0.0255,-0.0255,-0.0255,0,0,-0.0479,-0.0485,-0.0494,-0.0498,-0.0489,-0.048,-0.0468,-0.0467,-0.0448,-0.0426,-0.0397,-0.0366,-0.0323,-0.0283,-0.0269,-0.0275,-0.021,-0.0235,-0.0233,-0.0231,-0.0175,-0.0167,-0.016,-0.0254,-0.0254,-0.0255,0,0,-0.0494,-0.0512,-0.0524,-0.0519,-0.0516,-0.0499,-0.0503,-0.0481,-0.0463,-0.0443,-0.0401,-0.0355,-0.0325,-0.0264,-0.0234,-0.0203,-0.0197,-0.0202,-0.0192,-0.0138,-0.013,-0.0124,-0.0116,-0.0108,-0.0203,-0.0203,-0.0203,0,-0.0502,-0.0516,-0.0523,-0.0526,-0.0517,-0.0509,-0.0502,-0.0482,-0.0453,-0.0428,-0.044,-0.0343,-0.0304,-0.022,-0.0202,-0.0193,-0.0189,-0.0207,-0.0134,-0.0127,-0.012,-0.0114,-0.0105,-0.0202,-0.0202,-0.0202,-0.0202,0,-0.0514,-0.0524,-0.0532,-0.0531,-0.0522,-0.052,-0.0496,-0.0481,-0.0467,-0.0436,-0.0375,-0.0321,-0.0261,-0.0232,-0.0208,-0.0128,-0.0151,-0.0136,-0.0143,-0.0111,-0.0107,-0.0098,-0.0201,-0.0202,-0.0202,-0.0202,0,0,-0.0526,-0.0537,-0.054,-0.0536,-0.0524,-0.0517,-0.0489,-0.0449,-0.0432,-0.0394,-0.0356,-0.0258,-0.0237,-0.0201,-0.0155,-0.0102,-0.0044,-0.0107,-0.0104,-0.0103,0.0032,0.0011,0.0017,-0.0026,-0.0024,-0.0022,0.0007,0,-0.0528,-0.0535,-0.0534,-0.0526,-0.0521,-0.0503,-0.0481,-0.0445,-0.0419,-0.0386,-0.031,-0.0269,-0.0224,-0.0206,-0.0136,-0.0071,-0.0019,-0.0056,0.0004,0.0005,-0.0019,0.0029,-0.0015,0.0013,0.0015,0.0016,0.0017,0,-0.0532,-0.0533,-0.0532,-0.0522,-0.052,-0.0515,-0.0479,-0.0459,-0.0405,-0.039,-0.0328,-0.0292,-0.0194,-0.018,-0.0041,-0.0078,-0.0018,0.0028,0.0031,0.0017,0.0001,-0.0019,0.0033,0.0032,0.003,0.0029,0.0028,0,-0.053,-0.0529,-0.0528,-0.0525,-0.0514,-0.0507,-0.0498,-0.0457,-0.0454,-0.0399,-0.0404,-0.0289,-0.0258,-0.0151,-0.0053,-0.0051,0.0069,0.0087,0.0126,0.0122,0.0126,0.0119,0.0193,0.0193,0.0193,0.0193,0.0193,0,-0.0524,-0.0526,-0.0535,-0.0536,-0.0545,-0.0524,-0.0533,-0.0509,-0.0492,-0.0488,-0.0414,-0.0391,-0.025,-0.0171,-0.0068,0.0043,0.0063,0.0136,0.0144,0.0124,0.0117,0.013,0.0123,0.0194,0.0194,0.0194,0.0193,0,-0.0529,-0.0533,-0.0544,-0.0544,-0.0553,-0.0563,-0.0592,-0.0601,-0.0574,-0.0571,-0.0563,-0.0472,-0.0359,-0.0232,-0.0071,0.0007,0.0123,0.0159,0.0092,0.0094,0.0139,0.0131,0.021,0.021,0.0209,0.0209,0.0209,0,-0.0531,-0.0539,-0.0571,-0.0601,-0.0612,-0.0634,-0.0665,-0.0652,-0.066,-0.0613,-0.0612,-0.0516,-0.0437,-0.0237,-0.0096,0.0082,0.0119,0.0156,0.0198,0.0149,0.0148,0.0141,0.0134,0.0209,0.0209,0.0209,0.0209,0,-0.0541,-0.0567,-0.0587,-0.0648,-0.0691,-0.073,-0.0756,-0.0766,-0.0738,-0.0727,-0.0639,-0.0525,-0.0403,-0.0233,-0.0108,0.003,0.0123,0.0156,0.0158,0.0198,0.0149,0.0147,0.014,0.0208,0.0208,0.0209,0.0209,0,-0.0567,-0.0597,-0.0643,-0.069,-0.0755,-0.079,-0.0799,-0.0787,-0.0783,-0.0709,-0.0682,-0.0534,-0.0447,-0.0261,-0.014,-0.0017,0.0032,0.0075,0.0083,0.0085,0.0048,-0.0032,-0.001,0,0,0,0,0,-0.0584,-0.0626,-0.0681,-0.0734,-0.0798,-0.0822,-0.0848,-0.0843,-0.0812,-0.0754,-0.0708,-0.0583,-0.0379,-0.0293,-0.0169,-0.0144,0.0038,0.0002,0.0087,0.0206,0.0206,0.0185,0,0,0,0,0,0,-0.0602,-0.0661,-0.0683,-0.0758,-0.0798,-0.0858,-0.0867,-0.0845,-0.0794,-0.0744,-0.0632,-0.0566,-0.0369,-0.0449,-0.017,-0.0135,-0.0067,0.0098,0.0101,0.0206,0.0206,0.0206,0.0185,0,0,0,0,0]}]]